[[{"header":{"parameterUnit":"m.s-1","parameterCategory":1,"la1":30.2991,"la2":30.254,"lo1":-89.0895,"lo2":-89.0444,"dy":0.0017,"dx":0.0017,"nx":28,"ny":28,"refTime":"2025-04-17T09:00:00:Z","depth":0,"parameterNumber":2,"parameterNumberName":"U-component_of_WINDS"},"data":[0,0,0,0,0,0,0,0,0,0,0,0,0,0,0,0,0,0,0,0,0,0,0,0,0,0,0,0,0,0,0,0,0,0,0,0,0,0,0,0,0,0,0,0,0,0,0,0,0,0,0,0,0,0,0,0,0,0,-2.5903,-2.5903,0,-2.5911,-2.5911,-2.5911,-2.5888,-2.5887,-2.5887,-2.5886,-2.5895,-2.5896,-2.5897,0,0,0,0,0,0,0,0,0,0,0,0,0,-2.587,-2.587,-2.5903,-2.5903,-2.5903,-2.5911,-2.5911,-2.5911,-2.5888,-2.5887,-2.5886,-2.5886,-2.5894,-2.5896,-2.5897,0,0,0,0,0,0,0,0,0,0,0,0,0,-2.5882,-2.5871,-2.5903,-2.5893,-2.5892,-2.5911,-2.5911,-2.5911,-2.5888,-2.5887,-2.5886,-2.5885,-2.5894,-2.5895,-2.5897,-2.5927,0,0,-2.5901,-2.5902,0,0,0,0,0,0,0,0,-2.5881,-2.5883,-2.5894,-2.5893,-2.5892,-2.5897,-2.5903,-2.5916,-2.5889,-2.589,-2.5886,-2.5885,-2.5897,-2.5898,-2.5902,-2.5927,-2.5927,-2.5901,-2.5902,-2.5902,-2.5903,0,0,0,0,0,0,0,-2.588,-2.5882,-2.5906,-2.5894,-2.5893,-2.5888,-2.5889,-2.5905,-2.5899,-2.5889,-2.5888,-2.5889,-2.5896,-2.59,-2.5902,-2.5928,-2.5901,-2.5902,-2.5903,-2.5904,-2.5979,-2.598,0,0,0,0,0,0,-2.588,-2.5882,-2.5906,-2.5906,-2.5884,-2.589,-2.589,-2.5897,-2.5899,-2.5898,-2.589,-2.5888,-2.5899,-2.59,-2.5902,-2.5937,-2.5902,-2.5904,-2.5905,-2.5978,-2.5979,-2.598,0,0,0,0,0,0,-2.588,-2.5883,-2.5906,-2.5894,-2.5896,-2.5891,-2.5899,-2.5898,-2.5902,-2.5899,-2.5898,-2.5895,-2.5898,-2.59,-2.5921,-2.5937,-2.5904,-2.5906,-2.5976,-2.5978,-2.598,-2.6007,0,0,0,0,0,0,-2.5879,-2.5883,-2.5893,-2.5894,-2.5897,-2.5924,-2.59,-2.5899,-2.5904,-2.5902,-2.5904,-2.5903,-2.5897,-2.5919,-2.5922,-2.5938,-2.5907,-2.5975,-2.5977,-2.5979,-2.6005,-2.601,-2.6014,0,0,0,0,0,-2.5878,-2.5901,-2.5894,-2.5897,-2.591,-2.5925,-2.5927,-2.5919,-2.5906,-2.5917,-2.5915,-2.5903,-2.5935,-2.5921,-2.5925,-2.5941,-2.5974,-2.5977,-2.5979,-2.6003,-2.6009,-2.6014,0,0,0,0,0,0,-2.5902,-2.5901,-2.5893,-2.5917,-2.5921,-2.5921,-2.5934,-2.5925,-2.5933,-2.5931,-2.5921,-2.5922,-2.5944,-2.5945,-2.593,-2.5971,-2.5952,-2.5956,-2.5969,-2.5975,-2.5979,-2.5978,-2.5908,0,0,0,0,0,-2.591,-2.5922,-2.592,-2.5942,-2.5944,-2.5939,-2.5945,-2.5939,-2.5943,-2.5945,-2.5945,-2.5949,-2.5961,-2.5968,-2.5978,-2.6006,-2.6006,-2.6019,-2.6024,-2.6027,-2.603,-2.6045,-2.6051,-2.5989,-2.5989,-2.5989,0,0,-2.5927,-2.5928,-2.5936,-2.5947,-2.5949,-2.5962,-2.5941,-2.5955,-2.5964,-2.5947,-2.5966,-2.5967,-2.5972,-2.5996,-2.6007,-2.5998,-2.6048,-2.6031,-2.6034,-2.6034,-2.6048,-2.6054,-2.606,-2.5991,-2.5991,-2.599,0,0,-2.5964,-2.5966,-2.5984,-2.5987,-2.5992,-2.5988,-2.5993,-2.5994,-2.5994,-2.6013,-2.6001,-2.6012,-2.6032,-2.6036,-2.604,-2.6081,-2.607,-2.6085,-2.6108,-2.6123,-2.6127,-2.6132,-2.6146,-2.6151,-2.6088,-2.6088,-2.6088,0,-2.5985,-2.6003,-2.5995,-2.601,-2.6015,-2.6001,-2.6019,-2.6023,-2.603,-2.6035,-2.6024,-2.6048,-2.6051,-2.6076,-2.6086,-2.609,-2.6095,-2.6083,-2.6127,-2.6132,-2.6135,-2.6149,-2.6154,-2.6089,-2.6089,-2.6089,-2.6089,0,-2.6028,-2.6041,-2.6055,-2.6063,-2.607,-2.6087,-2.6082,-2.609,-2.6084,-2.6082,-2.6103,-2.6105,-2.6115,-2.6121,-2.6115,-2.6146,-2.614,-2.6129,-2.611,-2.6143,-2.6155,-2.6161,-2.6092,-2.6091,-2.6091,-2.609,0,0,-2.6079,-2.6083,-2.6088,-2.6091,-2.6096,-2.6106,-2.6123,-2.6133,-2.614,-2.6147,-2.616,-2.6178,-2.6168,-2.6173,-2.6168,-2.6181,-2.6213,-2.6168,-2.6168,-2.6176,-2.6247,-2.6255,-2.6261,-2.6206,-2.6207,-2.6208,-2.6247,0,-2.6115,-2.6143,-2.6137,-2.6165,-2.6177,-2.6164,-2.6179,-2.6183,-2.6183,-2.6193,-2.6193,-2.6205,-2.6191,-2.6194,-2.6207,-2.6206,-2.6227,-2.6203,-2.6219,-2.622,-2.6217,-2.6268,-2.6276,-2.6312,-2.6251,-2.6252,-2.6253,0,-2.6161,-2.6168,-2.6197,-2.62,-2.6205,-2.6219,-2.6228,-2.6238,-2.6244,-2.6242,-2.6249,-2.6242,-2.6259,-2.6241,-2.6265,-2.6249,-2.6256,-2.6257,-2.6258,-2.6258,-2.6237,-2.6269,-2.6323,-2.6328,-2.626,-2.626,-2.6259,0,-2.6194,-2.6213,-2.6232,-2.6236,-2.624,-2.625,-2.6252,-2.6256,-2.6263,-2.6272,-2.6276,-2.6287,-2.6293,-2.6301,-2.6297,-2.6284,-2.6322,-2.6304,-2.6322,-2.6322,-2.6329,-2.6328,-2.6384,-2.6335,-2.6335,-2.6335,-2.6334,0,-2.6235,-2.6253,-2.6247,-2.6259,-2.628,-2.6273,-2.6294,-2.6295,-2.6299,-2.6312,-2.6302,-2.6314,-2.6308,-2.632,-2.6317,-2.6337,-2.634,-2.634,-2.6339,-2.634,-2.634,-2.6343,-2.634,-2.6336,-2.6336,-2.6335,-2.6335,0,-2.6276,-2.6273,-2.6293,-2.6296,-2.6297,-2.6312,-2.6314,-2.6326,-2.6325,-2.6341,-2.6344,-2.6343,-2.6357,-2.6354,-2.6369,-2.6367,-2.6393,-2.6389,-2.639,-2.6389,-2.6407,-2.6405,-2.6466,-2.6474,-2.642,-2.6421,-2.6421,0,-2.6301,-2.6315,-2.6319,-2.6327,-2.633,-2.6342,-2.6349,-2.6344,-2.6351,-2.6359,-2.637,-2.6383,-2.6393,-2.6415,-2.6416,-2.6428,-2.6424,-2.6444,-2.6425,-2.6427,-2.6423,-2.6422,-2.6424,-2.6448,-2.6448,-2.6449,-2.6449,0,-2.6347,-2.6345,-2.6355,-2.6365,-2.6374,-2.6382,-2.6389,-2.6395,-2.6391,-2.64,-2.6414,-2.6422,-2.6437,-2.645,-2.6461,-2.6464,-2.6456,-2.6456,-2.646,-2.6461,-2.6462,-2.6461,-2.64,-2.6454,-2.6453,-2.6453,-2.6453,-2.6453,-2.638,-2.6392,-2.6397,-2.6409,-2.6414,-2.6421,-2.6432,-2.6432,-2.6444,-2.6455,-2.6452,-2.6468,-2.6474,-2.6488,-2.6493,-2.6505,-2.6498,-2.6504,-2.6506,-2.6508,-2.651,-2.6461,-2.6507,-2.6507,-2.6507,-2.6507,-2.6507,0,-2.6425,-2.6428,-2.6439,-2.6449,-2.6459,-2.6451,-2.6458,-2.6467,-2.6481,-2.6487,-2.6497,-2.6513,-2.6526,-2.6528,-2.6541,-2.655,-2.6547,-2.6554,-2.6553,-2.6553,-2.6516,-2.651,-2.6556,-2.6556,-2.6556,-2.6556,-2.6556,-2.6556,-2.645,-2.6469,-2.6468,-2.649,-2.6493,-2.6508,-2.6513,-2.6519,-2.6524,-2.6543,-2.6553,-2.6555,-2.656,-2.6572,-2.6584,-2.6584,-2.6589,-2.6597,-2.6596,-2.6561,-2.6556,-2.6551,-2.6546,-2.6599,-2.6599,-2.6633,-2.6633,-2.6633]},{"header":{"parameterUnit":"m.s-1","parameterCategory":1,"la1":30.2991,"la2":30.254,"lo1":-89.0895,"lo2":-89.0444,"dy":0.0017,"dx":0.0017,"nx":28,"ny":28,"refTime":"2025-04-17T09:00:00:Z","depth":0,"parameterNumber":3,"parameterNumberName":"V-component_of_WINDS"},"data":[0,0,0,0,0,0,0,0,0,0,0,0,0,0,0,0,0,0,0,0,0,0,0,0,0,0,0,0,0,0,0,0,0,0,0,0,0,0,0,0,0,0,0,0,0,0,0,0,0,0,0,0,0,0,0,0,0,0,4.9462,4.9462,0,4.9466,4.9466,4.9466,4.9462,4.9462,4.9462,4.9462,4.9462,4.9462,4.9462,0,0,0,0,0,0,0,0,0,0,0,0,0,4.945,4.945,4.9462,4.9462,4.9462,4.9466,4.9466,4.9466,4.9462,4.9462,4.9462,4.9461,4.9462,4.9462,4.9462,0,0,0,0,0,0,0,0,0,0,0,0,0,4.9455,4.945,4.9462,4.9461,4.9461,4.9466,4.9466,4.9466,4.9462,4.9462,4.9462,4.9461,4.9462,4.9462,4.9462,4.9468,0,0,4.9463,4.9463,0,0,0,0,0,0,0,0,4.9454,4.9455,4.9461,4.9461,4.9461,4.9463,4.9462,4.9467,4.9462,4.9461,4.9461,4.9461,4.9462,4.9463,4.9464,4.9468,4.9468,4.9463,4.9463,4.9463,4.9463,0,0,0,0,0,0,0,4.9454,4.9455,4.9464,4.9461,4.9461,4.9459,4.946,4.9463,4.9463,4.9461,4.9461,4.9462,4.9462,4.9463,4.9464,4.9468,4.9463,4.9463,4.9463,4.9463,4.9479,4.9479,0,0,0,0,0,0,4.9454,4.9455,4.9464,4.9464,4.9457,4.946,4.946,4.9463,4.9463,4.9463,4.9462,4.9462,4.9463,4.9463,4.9464,4.9471,4.9463,4.9463,4.9464,4.9479,4.9479,4.9479,0,0,0,0,0,0,4.9454,4.9455,4.9463,4.9459,4.946,4.946,4.9463,4.9463,4.9464,4.9464,4.9463,4.9463,4.9463,4.9463,4.9468,4.9471,4.9464,4.9464,4.9479,4.9479,4.9479,4.9486,0,0,0,0,0,0,4.9454,4.9455,4.9457,4.9459,4.946,4.9468,4.9463,4.9463,4.9465,4.9464,4.9465,4.9464,4.9463,4.9467,4.9468,4.9472,4.9464,4.9478,4.9479,4.9479,4.9486,4.9487,4.9488,0,0,0,0,0,4.9453,4.9458,4.9458,4.9459,4.9464,4.9468,4.9469,4.9468,4.9465,4.9468,4.9468,4.9464,4.9471,4.9468,4.9468,4.9472,4.9478,4.9479,4.9479,4.9485,4.9487,4.9488,0,0,0,0,0,0,4.9455,4.9458,4.9458,4.9464,4.9466,4.9467,4.947,4.9469,4.9471,4.947,4.9468,4.9468,4.9473,4.9473,4.9469,4.9479,4.9474,4.9475,4.9478,4.948,4.9481,4.9481,4.9464,0,0,0,0,0,4.9457,4.9461,4.9463,4.9468,4.9469,4.947,4.9472,4.9471,4.9473,4.9473,4.9473,4.9474,4.9477,4.9478,4.948,4.9486,4.9486,4.9489,4.949,4.9491,4.9492,4.9496,4.9497,4.9482,4.9482,4.9482,0,0,4.9459,4.9461,4.9464,4.9469,4.947,4.9474,4.947,4.9474,4.9477,4.9473,4.9478,4.9478,4.9479,4.9485,4.9487,4.9485,4.9496,4.9492,4.9493,4.9493,4.9497,4.9498,4.9499,4.9482,4.9482,4.9482,0,0,4.9465,4.9467,4.9473,4.9475,4.9478,4.9479,4.948,4.9482,4.9483,4.9488,4.9486,4.9489,4.9493,4.9494,4.9495,4.9504,4.9502,4.9505,4.9511,4.9515,4.9516,4.9517,4.9521,4.9522,4.9506,4.9506,4.9506,0,4.9467,4.9474,4.9475,4.948,4.9482,4.9481,4.9486,4.9488,4.9491,4.9493,4.949,4.9497,4.9497,4.9503,4.9506,4.9507,4.9508,4.9505,4.9516,4.9517,4.9518,4.9522,4.9523,4.9506,4.9506,4.9506,4.9506,0,4.9477,4.9482,4.9486,4.9491,4.9494,4.9499,4.95,4.9503,4.9502,4.9503,4.9509,4.951,4.9513,4.9514,4.9513,4.9521,4.9519,4.9516,4.9512,4.952,4.9523,4.9525,4.9507,4.9507,4.9506,4.9506,0,0,4.9484,4.9491,4.9492,4.9495,4.95,4.9503,4.9508,4.9513,4.9515,4.9518,4.9522,4.9527,4.9525,4.9526,4.9525,4.9529,4.9538,4.9526,4.9526,4.9529,4.9547,4.9549,4.9551,4.9536,4.9536,4.9537,4.9547,0,4.9491,4.9501,4.9503,4.9512,4.9517,4.9516,4.9521,4.9524,4.9525,4.9529,4.953,4.9534,4.953,4.9532,4.9535,4.9536,4.9541,4.9535,4.954,4.954,4.954,4.9553,4.9555,4.9565,4.9549,4.9549,4.9549,0,4.95,4.9505,4.9515,4.9521,4.9523,4.9527,4.9532,4.9536,4.9539,4.954,4.9543,4.9542,4.9547,4.9543,4.955,4.9546,4.9548,4.9549,4.955,4.955,4.9545,4.9554,4.9568,4.9569,4.9551,4.9551,4.9551,0,4.9505,4.9514,4.9521,4.9524,4.953,4.9533,4.9536,4.954,4.9543,4.9547,4.9549,4.9553,4.9555,4.9558,4.9559,4.9555,4.9566,4.9562,4.9567,4.9567,4.9569,4.9569,4.9584,4.957,4.957,4.957,4.957,0,4.9513,4.9519,4.9524,4.9528,4.9535,4.9537,4.9544,4.9546,4.955,4.9555,4.9554,4.9559,4.9559,4.9563,4.9564,4.957,4.9571,4.9572,4.9572,4.9572,4.9572,4.9573,4.9572,4.957,4.957,4.957,4.957,0,4.9518,4.9522,4.953,4.9537,4.9538,4.9543,4.9548,4.9553,4.9555,4.9561,4.9563,4.9565,4.9571,4.9572,4.9577,4.9578,4.9586,4.9585,4.9585,4.9585,4.959,4.959,4.9607,4.9609,4.9594,4.9594,4.9594,0,4.9523,4.9528,4.9536,4.954,4.9543,4.9549,4.9553,4.9556,4.956,4.9565,4.9569,4.9575,4.958,4.9588,4.959,4.9595,4.9594,4.96,4.9595,4.9595,4.9595,4.9595,4.9596,4.9601,4.9601,4.9601,4.9601,0,4.9531,4.9534,4.954,4.9547,4.9552,4.9558,4.9563,4.9566,4.9569,4.9574,4.958,4.9584,4.9591,4.9597,4.9602,4.9604,4.9603,4.9603,4.9604,4.9605,4.9605,4.9605,4.9588,4.9602,4.9602,4.9602,4.9602,4.9602,4.9537,4.9542,4.9549,4.9556,4.9561,4.9567,4.9572,4.9575,4.9581,4.9588,4.9589,4.9596,4.9601,4.9608,4.9611,4.9616,4.9614,4.9616,4.9617,4.9617,4.9618,4.9604,4.9617,4.9617,4.9617,4.9617,4.9617,0,4.9546,4.9551,4.9558,4.9566,4.9572,4.9573,4.9579,4.9584,4.9591,4.9596,4.9601,4.9609,4.9615,4.9619,4.9625,4.9629,4.9628,4.963,4.963,4.963,4.9619,4.9618,4.963,4.963,4.963,4.963,4.963,4.963,4.9551,4.956,4.9564,4.9575,4.958,4.9588,4.9592,4.9597,4.9602,4.9611,4.9617,4.962,4.9624,4.9631,4.9637,4.9638,4.964,4.9642,4.9643,4.9632,4.9631,4.963,4.9628,4.9643,4.9643,4.9653,4.9654,4.9654]}]]